weather.gov     
National Weather Service

Regional Weather Roundup
NWS Homepage
This page is being discontinued on March 12, 2014.
The same data is available at this site. Please update your bookmarks.
Thank you, and we apologize for the inconvenience.
Please send an email to SR-SRH.Webmaster@noaa.gov with any concerns.


Current Version
Previous Version:    01  02  03  04  05  06  07  08  09  10  11  12  13  14  15  16  17  18  19  20  21  22  23  24  25  26  
[Printable]
579
ASUS44 KLZK 021405
RWRLZK

WEATHER ROUNDUP FOR ARKANSAS
NATIONAL WEATHER SERVICE LITTLE ROCK AR
900 AM CDT TUE SEP 02 2014

NOTE: "FAIR" INDICATES FEW OR NO CLOUDS BELOW 12,000 FEET WITH NO
SIGNIFICANT WEATHER AND/OR OBSTRUCTIONS TO VISIBILITY.

ARZ001-003-010-029-021500-
NORTHWEST ARKANSAS

CITY           SKY/WX    TMP DP  RH WIND       PRES   REMARKS
FAYETTEVILLE   RAIN      65  65 100 E8        30.11R
FORT SMITH     HVY RAIN  71  67  87 NE24G36   30.05R FOG
HARRISON       TSTM      66  65  96 S6        30.07F
BENTONVILLE    CLOUDY    66  63  88 S10G18    30.07F
ROGERS         LGT RAIN  65  63  93 SE8       30.08F
HIGHFILL       LGT RAIN  63  32  31 SE15      30.06F
SPRINGDALE     RAIN      64  64 100 SW6       30.09F FOG
$$

ARZ004-005-016-021500-
NORTH CENTRAL ARKANSAS

CITY           SKY/WX    TMP DP  RH WIND       PRES   REMARKS
BATESVILLE     MOSUNNY   75  68  78 CALM      30.05R
FLIPPIN        CLOUDY    68  63  83 CALM      30.08R
MTN HOME       RAIN      68  67  96 SW5       30.08R FOG
$$

ARZ040-041-021500-
WEST CENTRAL ARKANSAS

CITY           SKY/WX    TMP DP  RH WIND       PRES   REMARKS
MENA           PTSUNNY   81  73  78 CALM      30.06R HX  85
MOUNT IDA      MOSUNNY   81  73  76 CALM      30.03R HX  86
$$

ARZ009-017-025-026-028-021500-
NORTHEAST ARKANSAS

CITY           SKY/WX    TMP DP  RH WIND       PRES   REMARKS
CORNING          N/A     73  68  83 S6        30.01R
JONESBORO      LGT RAIN  72  67  84 CALM      30.04R
NEWPORT        PTSUNNY   76  69  79 NE3       30.05S
WALNUT RIDGE   PTSUNNY   73  66  78 SE5       30.02R
BLYTHEVILLE    CLOUDY    78  75  90 SW9       30.03R
$$

ARZ022-023-033-042-044-021500-
CENTRAL ARKANSAS

CITY           SKY/WX    TMP DP  RH WIND       PRES   REMARKS
LITTLE ROCK    CLOUDY    79  74  84 VRB5      30.03R
N LITTLE ROCK  CLOUDY    78  76  92 SW6       30.03R
JACKSONVILLE   CLOUDY    79  75  89 S3        30.04R
HOT SPRINGS    CLOUDY    80  74  81 S3        30.05R HX  85
RUSSELLVILLE   HVY RAIN  70  67  90 N5        30.07R VSB 1/2
CLINTON        CLOUDY    73  70  88 W3        30.08R
$$

ARZ036-021500-
EAST ARKANSAS

CITY           SKY/WX    TMP DP  RH WIND       PRES   REMARKS
WEST MEMPHIS   CLOUDY    78  76  93 SW6       30.03R
$$

ARZ050-053-066-070-073-021500-
SOUTHWEST ARKANSAS

CITY           SKY/WX    TMP DP  RH WIND       PRES   REMARKS
ARKADELPHIA    PTSUNNY   79  77  94 CALM      30.05R
CAMDEN         CLOUDY    81  73  78 CALM      30.04R HX  85
TEXARKANA      CLOUDY    80  75  84 VRB6      30.03R HX  85
EL DORADO      CLOUDY    79  76  90 S5        30.04R
DE QUEEN       CLOUDY    79  76  90 E3        30.02R
$$

ARZ056-057-069-021500-
SOUTHEAST ARKANSAS

CITY           SKY/WX    TMP DP  RH WIND       PRES   REMARKS
PINE BLUFF     CLOUDY    78  74  87 S6        30.04F
STUTTGART      CLOUDY    81  73  78 S10       30.04S HX  85
MONTICELLO     CLOUDY    79  75  87 SW5       30.05R

$$






U.S. Dept. of Commerce
NOAA National Weather Service
1325 East West Highway
Silver Spring, MD 20910
E-mail: w-nws.webmaster@noaa.gov
Page last modified: May 16, 2007
NATIONAL WEATHER SERVICE: for Safety, for Work, for Fun - FOR LIFE